OPS 4682 DEB, 38457

Orbit data source: Space-Track

OPS 4682 DEB, 38457 is space debris in LEO originally from a launch on Sat, 03 Apr 1965 UTC launched from the Air Force Western Test Range (AFWTR). Debris objects in space refer to the collection of defunct objects orbiting the Earth. Examples of debris include non-operational satellites, rocket bodies, and fragments generated from explosions, collisions, or faulty payload assembly.

Loading next visibility...
Identifier
38457, 1965-027FN
Orbit
LEO
Country
Flag of USUS
Related business
Manufacturer
Unknown
Mission
Spacecraft
Bus & Motor
Unknown
Mass
Unknown
Launch date (UTC)
1965-04-03 (61 years ago)
Launch vehicle
Unknown
Launch site
Air Force Western Test Range (AFWTR)
Object type
Payload
Rocket body
Debris
Shape & HBR
Unknown shape, 0.1 m
Radar Cross Section
Small (<0.1 m²)

Expand to show TLE details & history
Last TLE update: 2 days ago

TLE from 2 days ago
0 OPS 4682 DEB
1 38457U 65027FN  26102.41660650  .00000450  00000-0  14991-2 0  9991
2 38457  90.2362   0.8754 0028930 193.0142 167.0236 12.98518997603224
Epoch: 2026-04-12T09:59Z
TLE epoch observation values (Epoch: 2026-04-12T09:59:54.801Z)
Latitude
-0.00002°
Longitude
10.27519°
Altitude
1,292.339 km
Speed
7.2 km/s
True Right ascension
00h 03m 30s
True Declination
0° 00' 00"
Sunlit
Object was in daylight at epoch
Visualization orbit readout
Latitude
Unknown
Longitude
Unknown
Altitude
Unknown
Speed
Unknown
Apparent Right ascension
Unknown
Apparent Declination
Unknown
Sunlit
N/A
Visualization observer readout
Local Sidereal Time
15:41:52
Azimuth
Unknown
Elevation
Unknown
Doppler factor
Unknown
Orbital elements
Apogee altitude
1,287.136 km
Perigee altitude
1,242.912 km
Semi-major axis
7,643.161 km
Eccentricity
0.00289
Inclination
90.2362°
RAAN
0.8754°
Arg. of periapsis
193.0142°
True anomaly
167.09778°
Mean anomaly
167.0236°
Eccentric anomaly
167.06072°
Mean motion
3.24813 °/min
Orbital period
110.83 mins
BSTAR
0.0014991
Loading maneuver chart data...
Computing Atmospheric mass density...
Loading historical data...
Loading historical data...
Loading historical data...
Loading historical data...
Loading historical data...
Loading historical data...
Loading historical data...

Documentation

Showing up to 5 results
|